Location: Parador Hotel
(28.2240°N, 16.6271°W)
Time: 16:31:33
(UTC+00:00)

Envisat - Visible Passes

Search period start: 25 January 2022 00:00
Search period end: 04 February 2022 00:00
Orbit: 764 x 766 km, 98.2° (Epoch: 25 January)

Date Brightness Start Highest point End Pass type
(mag) Time Alt. Az. Time Alt. Az. Time Alt. Az.
25 Jan 5.0 05:04:12 10° NE 05:08:19 25° E 05:12:25 10° SSE visible
25 Jan 3.8 06:43:00 10° NNW 06:47:11 27° WNW 06:51:21 10° SW visible
26 Jan 2.8 06:05:29 10° N 06:10:31 67° WNW 06:15:31 10° SSW visible
27 Jan 3.8 05:28:47 10° NNE 05:33:41 47° E 05:38:32 10° S visible
27 Jan 4.5 07:09:35 10° NW 07:12:13 14° WNW 07:14:50 10° W visible
28 Jan 5.4 04:53:10 10° NE 04:56:41 19° E 05:00:10 10° SE visible
28 Jan 3.5 06:31:07 10° N 06:35:40 35° WNW 06:40:13 10° SW visible
29 Jan 2.8 05:53:52 10° NNE 05:58:57 88° WNW 06:04:00 10° SSW visible
30 Jan 4.4 05:17:25 10° NNE 05:22:03 35° E 05:26:40 10° SSE visible
30 Jan 4.2 06:57:16 10° NNW 07:00:44 19° WNW 07:04:12 10° WSW visible
31 Jan 5.8 04:42:26 10° ENE 04:45:01 14° E 04:47:34 10° SE visible
31 Jan 3.2 06:19:19 10° N 06:24:08 46° WNW 06:28:57 10° SSW visible
01 Feb 3.2 05:42:18 10° NNE 05:47:21 70° E 05:52:23 10° S visible
02 Feb 4.9 05:06:10 10° NE 05:10:25 27° E 05:14:39 10° SSE visible
02 Feb 3.9 06:45:12 10° NNW 06:49:14 25° WNW 06:53:17 10° SW visible
03 Feb 2.9 06:07:35 10° N 06:12:35 62° WNW 06:17:33 10° SSW visible
